Iowa City Municipal Airport
Tuesday 12:52 AM
Temperature71° (71°/71°)
Dew Point62°
Relative Humidity73
%
Visibility10
mi
Pressure1014.2
mb
Wind DirectionSSW
200°
Wind Speed8
mph
Precipitation Today0.00"

Last 30 Observations

Time PresWx Temp DP Feels RH% Vsby Pressure Ceiling Direction Speed 1h Precip
12:52 AM 71° 62° 73
%
10
mi
1014.2
mb
SSW
200°
8
mph
0.00"
11:52 PM 71° 62° 73
%
10
mi
1014.6
mb
S
190°
6
mph
0.00"
10:52 PM 72° 62° 71
%
10
mi
1014.6
mb
S
180°
8
mph
0.00"
9:52 PM 72° 62° 71
%
10
mi
1014.6
mb
S
180°
7
mph
0.00"
8:52 PM 75° 62° 64
%
10
mi
1014.2
mb
S
190°
8
mph
0.00"
7:52 PM 79° 62° 56
%
10
mi
1013.9
mb
SSW
200°
14
mph
0.00"
6:52 PM 82° 62° 51
%
10
mi
1013.6
mb
SSW
200°
16
mph
(G29)
0.00"
5:52 PM 81° 64° 56
%
10
mi
1013.9
mb
S
190°
18
mph
(G28)
0.00"
4:52 PM 81° 63° 54
%
10
mi
1014.9
mb
S
190°
16
mph
(G29)
0.00"
3:52 PM 80° 63° 56
%
10
mi
1015.2
mb
S
180°
20
mph
(G31)
0.00"
2:52 PM 81° 62° 53
%
10
mi
1015.9
mb
S
190°
21
mph
(G29)
0.00"
1:52 PM 80° 62° 54
%
10
mi
S
190°
18
mph
(G31)
0.00"
12:52 PM 75° 62° 64
%
10
mi
1018.3
mb
S
180°
16
mph
0.00"
11:52 AM 67° 60° 79
%
10
mi
1019.3
mb
S
170°
10
mph
0.00"
10:52 AM 64° 58° 81
%
10
mi
1020.7
mb
11,000
ft
SSE
160°
7
mph
Trace
9:52 AM -RA 65° 57° 76
%
10
mi
1021.3
mb
12,000
ft
SSE
150°
10
mph
0.00"
8:52 AM -RA 65° 56° 73
%
10
mi
1021.7
mb
SSE
150°
7
mph
0.00"
7:52 AM 65° 56° 73
%
10
mi
1021.3
mb
SSE
160°
9
mph
0.00"
6:52 AM -RA 64° 55° 73
%
10
mi
1021.7
mb
SSE
160°
6
mph
0.00"
5:52 AM 63° 53° 70
%
10
mi
1021.3
mb
SSE
150°
7
mph
0.00"
4:52 AM 62° 53° 72
%
10
mi
1021.3
mb
11,000
ft
SE
140°
7
mph
0.00"
3:52 AM -RA 63° 52° 67
%
10
mi
1022.0
mb
11,000
ft
SE
130°
6
mph
0.00"
2:52 AM 63° 52° 67
%
10
mi
1022.4
mb
12,000
ft
SE
130°
5
mph
0.00"
1:52 AM -RA 64° 51° 63
%
10
mi
1022.7
mb
12,000
ft
S
170°
5
mph
0.00"
12:52 AM 64° 50° 60
%
10
mi
1022.7
mb
9,000
ft
SE
140°
6
mph
0.00"
11:52 PM 64° 48° 56
%
10
mi
1022.7
mb
SSE
150°
3
mph
0.00"
10:52 PM 66° 47° 50
%
10
mi
1022.7
mb
Calm 0.00"
9:52 PM 67° 49° 52
%
10
mi
1022.7
mb
12,000
ft
SE
130°
3
mph
0.00"
8:52 PM 68° 48° 49
%
10
mi
1022.4
mb
11,000
ft
ESE
110°
6
mph
0.00"
7:52 PM 71° 48° 44
%
10
mi
1023.0
mb
12,000
ft
ESE
120°
6
mph
0.00"